x

8413320 - Bar Harbor, Me (atgm1) Weather Station

2:54 - Sat 20th Sep 2014 All times are EDT. -4 hours from GMT.

  • Wind
    2mph, 5mph gusts
  • Sea Temp 56°f
  • Air Temp 49°f
  • Sea Pressure 1028.7mb
  • 8413320 - Bar Harbor, Me
  • 8413320 - Bar Harbor, Me

More Historic Weather Station data

Upgrade to MSW Pro to gain access to the past 30 days of data for over 8000 Wavebouys and Weather Stations around the globe.

Join Pro

Comparision Forecast

View Surf forecast
   
sam. 09/20 2:54 2 5 mph 1028.7mb 56f 49f
2:48 2 6 mph 1028.8mb 56f 49f
2:42 2 6 mph 1029mb 56f 49f
2:36 2 6 mph 1029.1mb 56f 49f
2:30 2 6 mph 1029.2mb 56f 49f
2:24 1 6 mph 1029.2mb 56f 49f
2:18 3 6 mph 1029.2mb 56f 49f
2:12  -  2 mph 1029.2mb 56f 49f
2:06 2 3 mph 1029.1mb 56f 49f
2:00 1 5 mph 1029mb 56f 48f
1:54 2 5 mph 1029mb 56f 48f
1:48 2 3 mph 1029mb - -
1:42 1 2 mph 1029mb - -
1:36 1 2 mph 1029.1mb 56f 48f
1:30 1 3 mph 1029.1mb 56f 48f
1:24 1 5 mph 1029.2mb 56f 48f
1:18  -  mph - 56f -
1:12  -  mph - 56f -
1:06  -  mph - 56f -
1:00  -  mph 1029.2mb - -
12:54  -  mph 1029.1mb - -
12:48  -  mph 1029mb - 49f
12:42  -  mph 1029mb - 49f
12:36  -  mph 1029.1mb - 49f
12:30 6 10 mph 1029.1mb 56f -
12:24 5 9 mph 1029.1mb 56f 49f
12:18 6 10 mph 1029mb 56f 49f
12:12  -  mph 1029mb - -
12:06  -  mph 1029.1mb - -
12:00  -  mph 1029.1mb - -
ven. 09/19 11:54  -  mph 1029.1mb - -
11:48 3 7 mph 1029.1mb 56f 49f
11:42 6 8 mph 1029.1mb 56f 49f
11:36 6 8 mph 1029.2mb 56f 49f
11:30 5 8 mph 1029.2mb 56f 49f
11:24 6 10 mph 1029.1mb 56f 49f
11:18 6 10 mph 1029.1mb 56f 49f
11:12 7 10 mph 1029.2mb 56f 49f
11:06 8 11 mph 1029.4mb 56f 49f
11:00 7 11 mph 1029.4mb 56f 49f
10:54 8 11 mph 1029.5mb 56f 49f
10:48 7 11 mph 1029.7mb 56f 48f
10:42 8 10 mph 1029.8mb 56f 48f
10:36 7 10 mph 1029.9mb 56f 49f
10:30 9 11 mph 1029.9mb 56f 49f
10:24 8 13 mph 1029.9mb 56f 49f
10:18 7 13 mph 1029.6mb 56f 49f
10:12 8 11 mph 1029.8mb 56f 49f
10:06 8 13 mph 1029.7mb 56f 49f
10:00 7 11 mph 1029.6mb 56f 49f
9:54 7 11 mph 1029.5mb 56f 49f
9:48 7 13 mph 1029.4mb 56f 49f
9:42 7 13 mph 1029.6mb 56f 49f
9:36 8 13 mph 1029.6mb 56f 49f
9:30 8 13 mph 1029.5mb 56f 49f
9:24 8 11 mph 1029.5mb 55f 49f
9:18 8 11 mph 1029.5mb 55f 49f
9:12 7 11 mph 1029.3mb 56f 49f
9:06 9 11 mph 1029.3mb 55f 49f
9:00 8 11 mph 1029.2mb 56f 49f
8:54 7 11 mph 1029.2mb 55f 49f
8:48 9 14 mph 1029.2mb 56f 49f
8:42 6 11 mph 1029.2mb 56f 48f
8:36 7 10 mph 1029.3mb 56f 49f
8:30 8 10 mph 1029.3mb 56f 48f
8:24 7 10 mph 1029.4mb 56f 48f
8:18 8 10 mph 1029.3mb 56f 49f
8:12 7 9 mph 1029.3mb 56f 48f
8:06 6 9 mph 1029.2mb 56f 48f
8:00 7 9 mph 1029.2mb 56f 48f
7:54 7 9 mph 1029.1mb 56f 49f
7:48 7 9 mph 1028.9mb 56f 48f
7:42 3 8 mph 1029mb 56f 49f
7:36 6 7 mph 1028.9mb 55f 48f
7:30 2 6 mph 1028.9mb 56f 48f
7:24 3 6 mph 1028.8mb 56f 49f
7:18 5 6 mph 1028.6mb 56f 48f
7:12  -  3 mph 1028.6mb 56f 50f
7:06 2 5 mph 1028.6mb 55f 51f
7:00 3 5 mph 1028.5mb 56f 51f
6:54 3 5 mph 1028.5mb 56f 52f
6:48 3 6 mph 1028.5mb 56f 52f
6:42 5 6 mph 1028.5mb 56f 52f
6:36 3 6 mph 1028.5mb 56f 52f
6:30 5 6 mph 1028.3mb 56f 52f
6:24 3 5 mph 1028.3mb 56f 53f
6:18 5 6 mph 1028.3mb 56f 53f
6:12 5 6 mph 1028.3mb 56f 54f
6:06 3 5 mph 1028.2mb 56f 54f
6:00 3 6 mph 1028.2mb 56f 55f
5:54 3 5 mph 1028.1mb 56f 55f
5:48 3 6 mph 1028.2mb 56f 55f
5:42 3 6 mph 1028.2mb 56f 55f
5:36 5 6 mph 1028.2mb 56f 55f
5:30 5 6 mph 1028.2mb 56f 55f
5:24 3 5 mph 1028.2mb 56f 55f
5:18 3 6 mph 1028.3mb 56f 55f
5:12 3 7 mph 1028.3mb 56f 55f
5:06 3 6 mph 1028.3mb 56f 55f
5:00 5 6 mph 1028.3mb 56f 55f
4:54 3 7 mph 1028.2mb 56f 55f
4:48 6 10 mph 1028mb 56f 55f
4:42 6 8 mph 1028.1mb 56f 55f
4:36 7 8 mph 1028.1mb 56f 55f
4:30 7 8 mph 1028.2mb 56f 55f
4:24 5 7 mph 1028.1mb 56f 55f
4:18 6 10 mph 1028.1mb 56f 54f
4:12 7 9 mph 1027.9mb 56f 54f
4:06 7 10 mph 1027.9mb 56f 54f
4:00 6 9 mph 1027.9mb 56f 54f
3:54 5 10 mph 1027.8mb 56f 54f
3:48 8 10 mph 1027.7mb 56f 54f
3:42 7 9 mph 1027.8mb 56f 54f
3:36 7 8 mph 1027.8mb 57f 54f
3:30 8 10 mph 1027.9mb 57f 54f
3:24 6 10 mph 1028mb 57f 54f
3:18 6 9 mph 1028.2mb 57f 54f
3:12 10 13 mph 1028.2mb 57f 53f
3:06 7 8 mph 1028.2mb 57f 53f
3:00 10 14 mph 1028.3mb 57f 53f
2:54 10 13 mph 1028.2mb 57f 53f
2:48 7 10 mph 1028.3mb 57f 53f
2:42 9 13 mph 1028.3mb 57f 53f
2:36 8 13 mph 1028.3mb 57f 53f
2:30 8 10 mph 1028.3mb 57f 53f
2:24 5 9 mph 1028.3mb 57f 53f
2:18 8 13 mph 1028.3mb 57f 52f
2:12 9 14 mph 1028.3mb 57f 52f
2:06 9 13 mph 1028.3mb 57f 52f
2:00 7 15 mph 1028.3mb 57f 52f
1:54 9 13 mph 1028.3mb 57f 52f
1:48 9 14 mph 1028.3mb 56f 52f
1:42 9 14 mph 1028.3mb 56f 52f
1:36 7 14 mph 1028.2mb 56f 52f
1:30 6 10 mph 1028.2mb 56f 52f
1:18 8 10 mph 1028.1mb 56f 51f
1:12 8 14 mph 1028.1mb 56f 51f
1:06 11 14 mph 1028.1mb 56f 51f
1:00 8 14 mph 1028.1mb 56f 51f
12:54 9 13 mph 1028.1mb 56f 50f
12:48 8 10 mph 1028.1mb 56f 50f
12:42 6 11 mph 1028.1mb 56f 50f
12:36 8 14 mph 1028.1mb 56f 49f
12:30 9 13 mph 1028.2mb 55f 50f
12:24 7 11 mph 1028.1mb 55f 50f
12:18 9 11 mph 1028.2mb 55f 49f
12:12 10 16 mph 1028.2mb 55f 49f
12:06 10 17 mph 1028.1mb 55f 49f
12:00 8 11 mph 1028.2mb 55f 49f
11:54 7 11 mph 1028.2mb 55f 49f
11:48 7 13 mph 1028mb 55f 49f
11:42 8 11 mph 1028mb 55f 49f
11:36 8 11 mph 1028.1mb 55f 48f
11:30 7 17 mph 1028mb 55f 48f
11:24 8 13 mph 1028mb 55f 48f
11:18 9 17 mph 1028mb 55f 48f
11:12 11 17 mph 1028mb 55f 48f
11:06 10 14 mph 1028mb 55f 48f
11:00 9 14 mph 1027.9mb 55f 47f
10:54 8 14 mph 1028mb 55f 48f
10:48 10 15 mph 1028mb 55f 47f
10:42 13 17 mph 1028.1mb 55f 47f
10:36 10 17 mph 1028.1mb 55f 47f
10:30 9 15 mph 1028.1mb 55f 47f
10:24 9 17 mph 1028.1mb 55f 47f
10:18 10 15 mph 1028mb 55f 46f
10:12 10 15 mph 1028mb 55f 46f
10:06 10 15 mph 1028mb 55f 46f
10:00 13 16 mph 1028mb 55f 46f
9:54 10 15 mph 1027.9mb 55f 46f
9:48 6 13 mph 1027.9mb 55f 46f
9:42 6 14 mph 1027.9mb 55f 45f
9:36 11 18 mph 1027.9mb 55f 45f
9:30 10 18 mph 1027.9mb 55f 45f
9:24 10 16 mph 1027.9mb 55f 45f
9:18 8 17 mph 1027.8mb 55f 45f
9:12 10 17 mph 1027.8mb 55f 44f
9:06 13 18 mph 1027.8mb 55f 44f
9:00 14 20 mph 1027.7mb 55f 44f
8:54 14 18 mph 1027.6mb 55f 44f
8:48 11 20 mph 1027.4mb 55f 44f
8:42 9 15 mph 1027.4mb 55f 44f
8:36 11 16 mph 1027.3mb 55f 43f
8:30 9 17 mph 1027.2mb 55f 44f
8:24 10 16 mph 1027.2mb 55f 43f
8:18 9 15 mph 1027.1mb 55f 43f
8:12 9 14 mph 1027.1mb 55f 43f
8:06 11 15 mph 1027mb 55f 42f
8:00 10 15 mph 1026.9mb 55f 42f
7:54 11 14 mph 1026.8mb 54f 42f
7:48 10 15 mph 1026.7mb 54f 42f
7:42 9 13 mph 1026.6mb 55f 42f
7:36 10 14 mph 1026.6mb 55f 42f
7:30 9 13 mph 1026.5mb 55f 41f
7:24 8 14 mph 1026.5mb 56f 41f
7:18 8 11 mph 1026.4mb 56f 41f
7:12 10 14 mph 1026.2mb 56f 41f
7:06 8 14 mph 1026.1mb 56f 41f
7:00 9 13 mph 1026.1mb 56f 41f
6:54 9 13 mph 1026mb 56f 41f
6:48 11 15 mph 1025.9mb 56f 41f
6:42 11 15 mph 1025.8mb 56f 41f
6:36 9 14 mph 1025.7mb 56f 41f
6:30 10 14 mph 1025.6mb 56f 41f
6:24 8 10 mph 1025.4mb 56f 41f
6:18 8 13 mph 1025.4mb 56f 41f
6:12 8 11 mph 1025.3mb 56f 42f
6:06 9 13 mph 1025.2mb 56f 42f
6:00 8 10 mph 1025.1mb 56f 42f
5:54 8 14 mph 1025mb 56f 42f
5:48 9 11 mph 1024.8mb 56f 42f
5:42 10 11 mph 1024.7mb 56f 42f
5:36 9 13 mph 1024.6mb 56f 42f
5:30 9 10 mph 1024.5mb 56f 42f
5:24 8 10 mph 1024.4mb 56f 43f
5:18 9 13 mph 1024.3mb 56f 43f
5:12 8 11 mph 1024.3mb 56f 43f
5:06 7 14 mph 1024.2mb 56f 43f
5:00 9 11 mph 1024mb 56f 43f
4:54 9 13 mph 1023.9mb 56f 43f
4:48 10 14 mph 1023.8mb 56f 43f
4:42 9 13 mph 1023.7mb 56f 43f
4:30 10 13 mph 1023.5mb 56f 43f
4:24 9 13 mph 1023.4mb 56f 43f
4:18 9 13 mph 1023.3mb 56f 44f
4:12 11 14 mph 1023.2mb 56f 44f
4:06 11 14 mph 1023.1mb 56f 44f
4:00 13 14 mph 1023mb 56f 44f
3:54 10 14 mph 1022.9mb 56f 44f
3:48 11 14 mph 1022.9mb 56f 44f
3:42 8 11 mph 1022.8mb 56f 45f
3:36 7 11 mph 1022.7mb 56f 45f
3:30 10 14 mph 1022.6mb 56f 45f
3:24 9 13 mph 1022.6mb 56f 45f
3:18 9 13 mph 1022.5mb 56f 45f
3:12 7 10 mph 1022.5mb 56f 45f
3:06 6 9 mph 1022.5mb 56f 45f
3:00 7 10 mph 1022.4mb 56f 45f
2:54 6 10 mph 1022.3mb 56f 45f
2:42 6 11 mph 1022.1mb 56f 45f
2:36 8 11 mph 1022mb 56f 45f
2:30 7 11 mph 1021.9mb 56f 45f
2:24 9 14 mph 1021.9mb 56f 45f
2:18 6 11 mph 1021.8mb 57f 46f
2:12 8 14 mph 1021.7mb 57f 46f
2:06 7 14 mph 1021.7mb 57f 46f
2:00 7 14 mph 1021.6mb 57f 46f
1:54 11 15 mph 1021.5mb 57f 46f
1:48 7 11 mph 1021.5mb 57f 46f
1:42 7 13 mph 1021.5mb 57f 46f
1:36 9 15 mph 1021.4mb 57f 46f
1:30 10 15 mph 1021.4mb 57f 46f
1:24 7 13 mph 1021.3mb 57f 46f
1:18 10 13 mph 1021.2mb 57f 46f
1:12 10 14 mph 1021.1mb 57f 46f
1:06 9 14 mph 1021.1mb 57f 47f
1:00 10 15 mph 1021mb 57f 47f
12:54 9 13 mph 1020.9mb 57f 47f
12:48 8 11 mph 1021mb 57f 47f
12:42 10 14 mph 1020.9mb 57f 47f
12:36 7 14 mph 1020.8mb 57f 48f
12:30 7 13 mph 1020.8mb 57f 48f
12:24 7 16 mph 1020.7mb 57f 48f
12:18 8 16 mph 1020.7mb 57f 48f
12:12 8 14 mph 1020.6mb 57f 48f
12:06 10 15 mph 1020.5mb 57f 48f
12:00 10 16 mph 1020.4mb 57f 48f
jeu. 09/18 11:54 9 17 mph 1020.3mb 57f 49f
11:48  -  mph 1020.3mb 57f 49f
11:42  -  mph 1020.2mb 57f 49f
11:36  -  mph 1020.1mb 57f 49f
11:30 10 14 mph 1020.1mb 57f 49f
11:24 11 16 mph 1020mb 57f 50f
11:18 10 15 mph 1019.9mb 57f 50f
11:12 11 15 mph 1019.8mb 57f 50f
11:06 10 15 mph 1019.8mb 57f 50f
11:00 9 18 mph 1019.6mb 57f 50f
10:54 11 16 mph 1019.6mb 57f 50f
10:48 13 18 mph 1019.5mb 57f 51f
10:42 10 17 mph 1019.5mb 57f 51f
10:36 10 14 mph 1019.4mb 57f 51f
10:30 9 15 mph 1019.4mb 57f -
10:24 10 15 mph 1019.3mb 57f -
10:18 9 15 mph 1019.3mb 57f 51f
10:12 9 16 mph 1019.3mb 57f 52f
10:06 10 18 mph 1019.3mb 57f 52f
10:00 9 17 mph 1019.3mb 57f 52f
9:54 9 15 mph 1019.3mb 57f 52f
9:48 10 15 mph 1019.2mb 57f 52f
9:42 11 15 mph 1019.1mb 57f 52f
9:36 11 16 mph 1019.1mb 57f 53f
9:30 13 17 mph 1019mb 57f 53f
9:24 11 16 mph 1018.9mb 57f 53f
9:18 11 17 mph 1018.8mb 57f 53f
9:12 11 18 mph 1018.8mb 57f 53f
9:06 11 20 mph 1018.6mb 57f 54f
9:00 13 18 mph 1018.5mb 57f 54f
8:54 10 16 mph 1018.3mb 57f 54f
8:48 11 16 mph 1018.1mb 57f 55f
8:42 13 18 mph 1018mb 57f 55f
8:36 13 17 mph 1017.9mb 57f 55f
8:30 10 15 mph 1017.8mb 57f 55f
8:24 11 15 mph 1017.6mb 57f 55f
8:18 11 17 mph 1017.5mb 57f 56f
8:12 14 18 mph 1017.4mb 57f 56f
8:06 13 16 mph 1017.3mb 57f 56f
8:00 13 17 mph 1017.2mb 57f 56f
7:54 9 15 mph 1017.1mb 57f 56f
7:48 10 16 mph 1017mb 57f 57f
7:42 9 14 mph 1016.8mb 57f 57f
7:36 10 15 mph 1016.7mb 56f 57f
7:30 11 18 mph 1016.6mb 57f 58f
7:24 8 15 mph 1016.4mb 57f 58f
7:18 8 15 mph 1016.3mb 56f 58f
7:12 8 14 mph 1016.1mb 57f 58f
7:06 10 15 mph 1016mb 56f 58f
7:00 11 16 mph 1015.9mb 56f 59f
6:54 13 14 mph 1015.8mb 56f 59f
6:48 10 11 mph 1015.6mb 56f 59f
6:42 10 13 mph 1015.5mb 57f 59f
6:36 10 15 mph 1015.3mb 58f 59f
6:30 14 17 mph 1015.3mb 57f 60f
6:24 11 15 mph 1015.2mb 57f 60f
6:18 13 15 mph 1015.1mb 57f 60f
6:12 13 16 mph 1015mb 57f 61f
6:06 14 16 mph 1015mb 56f 60f
6:00 14 17 mph 1014.9mb 56f 61f
5:54 14 16 mph 1014.8mb 56f 61f
5:48 10 15 mph 1014.6mb 56f 61f
5:42 10 15 mph 1014.5mb 56f 62f
5:36 11 16 mph 1014.5mb 56f 62f
5:30 11 17 mph 1014.4mb 56f 62f
5:24 13 18 mph 1014.3mb 56f 62f
5:18 13 21 mph 1014.2mb 56f 62f
5:12 14 17 mph 1014mb 56f 62f
5:06 10 15 mph 1013.9mb 56f 62f
5:00 13 17 mph 1013.8mb 56f 62f
4:54 13 15 mph 1013.8mb 56f 62f
4:48 11 16 mph 1013.8mb 56f 62f
4:42 9 18 mph 1013.6mb 56f 62f
4:36 9 16 mph 1013.5mb 56f 62f
4:30 9 15 mph 1013.4mb 56f 62f
4:24 9 16 mph 1013.4mb 56f 62f
4:18 10 14 mph 1013.4mb 56f 62f
4:12 10 16 mph 1013.6mb 56f 63f
4:06 10 18 mph 1013.6mb 56f 62f
4:00 9 11 mph 1013.5mb 56f 63f
3:54 10 14 mph 1013.5mb 56f 63f
3:48 11 15 mph 1013.5mb 57f 63f
3:42 8 10 mph 1013.5mb 56f 62f
3:36 10 14 mph 1013.6mb 56f 62f
3:30 10 14 mph 1013.6mb 56f 62f
3:24 10 14 mph 1013.5mb 56f 62f
3:18 11 17 mph 1013.5mb 56f 62f
3:12 13 17 mph 1013.5mb 56f 62f
3:06 10 14 mph 1013.4mb 56f 62f
3:00 11 15 mph 1013.3mb 56f 63f
2:54 10 16 mph 1013.2mb 56f 62f
2:48 14 18 mph 1013.1mb 56f 63f
2:42 13 17 mph 1013.1mb 56f 63f
2:36 14 17 mph 1013mb 56f 63f
2:30 11 16 mph 1012.9mb 56f 63f
2:24 13 16 mph 1012.9mb 56f 64f
2:18 13 17 mph 1012.8mb 56f 64f
2:12 14 20 mph 1012.7mb 56f 63f
2:06 11 16 mph 1012.7mb 56f 63f
2:00 11 15 mph 1012.7mb 56f 64f
1:54 9 16 mph 1012.7mb 56f 63f
1:48 13 17 mph 1012.8mb 56f 63f
1:42 14 20 mph 1012.7mb 56f 63f
1:36 9 13 mph 1012.6mb 56f 65f
1:30 9 11 mph 1012.6mb 56f 65f
1:24 7 13 mph 1012.5mb 56f 65f
1:18 10 14 mph 1012.6mb 56f 65f
1:12 2 13 mph 1012.5mb 56f 65f
1:06 11 14 mph 1012.7mb 56f 65f
1:00 9 15 mph 1012.7mb 56f 65f
12:54 7 10 mph 1012.8mb 56f 64f
12:48 9 11 mph 1012.7mb 56f 64f
12:42 7 10 mph 1012.8mb 56f 64f
12:36 9 11 mph 1012.8mb 56f 64f
12:30 11 13 mph 1012.8mb 56f 65f
12:24 10 15 mph 1012.8mb 56f 65f
12:18 11 15 mph 1012.8mb 56f 64f
12:12 11 17 mph 1012.8mb 56f 64f
12:06 10 14 mph 1012.8mb 56f 65f
12:00 9 13 mph 1012.7mb 56f 65f
11:54 11 14 mph 1012.8mb 56f 64f
11:48 10 15 mph 1012.8mb 56f 65f
11:42 10 14 mph 1012.9mb 56f 64f
11:36 10 14 mph 1012.9mb 56f 64f
11:30 5 9 mph 1013mb 56f 64f
11:24 8 10 mph 1013mb 56f 64f
11:18 7 9 mph 1013.1mb 56f 63f
11:12 9 11 mph 1013.1mb 56f 64f
11:06 10 11 mph 1013.1mb 56f 63f
11:00 10 14 mph 1013.2mb 56f 62f
10:54 9 11 mph 1013.3mb 56f 62f
10:48 7 13 mph 1013.3mb 56f 62f
10:42 10 14 mph 1013.3mb 56f 62f
10:36 13 15 mph 1013.3mb 56f 62f
10:30 11 14 mph 1013.3mb 55f 62f
10:24 9 15 mph 1013.3mb 55f 62f
10:18 10 15 mph 1013.3mb 55f 62f
10:12 13 15 mph 1013.3mb 55f 62f
10:06 9 10 mph 1013.2mb 55f 62f
10:00 10 15 mph 1013.3mb 55f 62f
9:54 9 14 mph 1013.4mb 55f 63f
9:48 9 14 mph 1013.4mb 55f 63f
9:42 8 13 mph 1013.3mb 55f 63f
9:36 10 15 mph 1013.3mb 55f 63f
9:30 5 9 mph 1013.2mb 55f 63f
9:24 7 10 mph 1013.2mb 55f 63f
9:18 7 10 mph 1013.1mb 55f 63f
9:12 5 9 mph 1013.1mb 55f 62f
9:06 7 9 mph 1013.1mb 55f 62f
9:00 5 13 mph 1013mb 55f 62f
8:54 8 11 mph 1013mb 55f 61f
8:48 7 10 mph 1012.9mb 55f 61f
8:42 8 11 mph 1012.9mb 55f 61f
8:36 8 11 mph 1012.9mb 55f 60f
8:30 10 13 mph 1013mb 55f 59f
8:24 10 11 mph 1013.1mb 55f 58f
8:18 6 8 mph 1013mb 55f 56f
8:12 7 8 mph 1013.1mb 55f 56f
8:06 6 10 mph 1013.1mb 55f 56f
8:00 11 14 mph 1013.1mb 55f 55f
7:54 8
mph
1012.9mb 55f 56f
7:48 6 7 mph 1012.9mb 55f 56f
7:42 6 7 mph 1012.9mb 55f 56f
7:36 7
mph
1012.8mb 55f 57f
7:30 2 3 mph 1012.8mb 55f 57f
7:24 1 2 mph 1012.7mb 55f 58f
7:18  -  3 mph 1012.7mb 55f 57f
7:12 3 5 mph 1012.7mb 55f 57f
7:06  -  mph 1012.7mb 55f 57f
7:00  -  mph 1012.6mb 55f 58f
6:54  -  3 mph 1012.5mb 55f 58f
6:48 2 7 mph 1012.4mb 55f 56f
6:42 6 7 mph 1012.3mb 55f 56f
6:36 3 5 mph 1012.4mb 55f 56f
6:30 3 5 mph 1012.4mb 55f 57f
6:24 3 6 mph 1012.4mb 55f 56f
6:18 2 3 mph 1012.4mb 55f 56f
6:12  -  5 mph 1012.3mb 55f 56f
6:06 5 6 mph 1012.2mb 55f 55f
6:00 2 5 mph 1012.1mb 55f 56f
5:54 2 6 mph 1012mb 55f 56f
5:48  -  2 mph 1012mb 55f 55f
5:42 3 8 mph 1012mb 55f 56f
5:36 3 6 mph 1012mb 55f 57f
5:30 5 9 mph 1011.9mb 55f 59f
5:24 6 9 mph 1011.8mb 55f 59f
5:18 8 10 mph 1011.7mb 55f 59f
5:12 7 10 mph 1011.7mb 55f 58f
5:06 7 10 mph 1011.7mb 55f 58f
5:00 7 9 mph 1011.8mb 55f 58f
4:54 6 8 mph 1011.8mb 55f 58f
4:48 6 7 mph 1011.8mb 55f 58f
4:42 6 8 mph 1011.8mb 55f 58f
4:36 6 8 mph 1011.8mb 55f 58f
4:30 6 8 mph 1011.9mb 55f 58f
4:24 6 9 mph 1011.9mb 55f 58f
4:18 6 9 mph 1012mb 55f 58f
4:12 7 9 mph 1012mb 55f 58f
4:06 6 9 mph 1012mb 55f 58f
4:00 6 8 mph 1012mb 55f 58f
3:54 5 8 mph 1012.1mb 55f 58f
3:48 6 7 mph 1012.1mb 55f 58f
3:42 6 7 mph 1012.1mb 55f 58f
3:36 6 7 mph 1012.1mb 55f 58f
3:30 6 9 mph 1012.1mb 55f 58f
3:24 6 8 mph 1012mb 55f 58f
3:18 6 8 mph 1012.1mb 56f 58f
3:12 6 7 mph 1012.1mb 56f 58f
3:06 5 6 mph 1012.2mb 56f 58f
3:00 6 7 mph 1012.2mb 56f 59f
2:54 6 7 mph 1012.3mb 55f 59f
2:48 6 7 mph 1012.3mb 55f 59f
2:42 5 8 mph 1012.4mb 55f 58f
2:36 6 8 mph 1012.4mb 55f 58f
2:30 6 8 mph 1012.5mb 55f 58f
2:24 6 9 mph 1012.5mb 55f 58f
2:18 5 6 mph 1012.6mb 56f 58f
2:12 5 7 mph 1012.6mb 56f 58f
2:06 5 6 mph 1012.7mb 56f 58f
2:00 6 7 mph 1012.7mb 56f 59f
1:54 6 8 mph 1012.8mb 56f 59f
1:48 5 7 mph 1012.9mb 56f 59f
1:42 5 7 mph 1012.9mb 56f 59f
1:36 6 9 mph 1012.9mb 56f 59f
1:30 6 9 mph 1012.9mb 56f 59f
1:24 6 8 mph 1012.9mb 56f 59f
1:18 6 10 mph 1012.9mb 56f 59f
1:12 6 9 mph 1013mb 56f 59f
1:06 5 9 mph 1013.1mb 56f 59f
1:00 7 11 mph 1013.1mb 56f 59f
12:54 6 9 mph 1013.2mb 56f 59f
12:42 1 3 mph 1013.3mb 56f 58f
12:36  -  5 mph 1013.3mb 56f 58f
12:30 2 5 mph 1013.3mb 56f 58f
12:24 1 3 mph 1013.4mb 56f 58f
12:18 1 5 mph 1013.4mb 56f 58f
12:12 2 5 mph 1013.3mb 56f 58f
12:06 1 3 mph 1013.3mb 56f 57f
12:00  -  mph 1013.4mb 56f 57f
mer. 09/17 11:54  -  mph 1013.5mb 56f 57f
11:48  -  2 mph 1013.6mb 56f 58f
11:42 2 5 mph 1013.6mb 56f 58f
11:36 2 7 mph 1013.6mb 56f 58f
11:30 7 9 mph 1013.6mb 56f 58f
11:24 9 10 mph 1013.6mb 56f 58f
11:18 5 9 mph 1013.7mb 56f 58f
11:12 5 9 mph 1013.7mb 56f 58f
11:06 6 9 mph 1013.7mb 56f 59f
11:00 7 13 mph 1013.7mb 56f 59f
10:54 9 13 mph 1013.7mb 56f 59f
10:48 7 11 mph 1013.7mb 56f 59f
10:42 3 7 mph 1013.8mb 56f 60f
10:36 6 10 mph 1013.9mb 56f 60f
10:30 7 11 mph 1013.8mb 56f 60f
10:24 8 9 mph 1013.9mb 56f 59f
10:18 8 9 mph 1014mb 56f 59f
10:12 7 8 mph 1014.1mb 56f 59f
10:06 8 9 mph 1014.2mb 56f 58f
10:00 6 7 mph 1014.2mb 56f 59f
9:54 6 10 mph 1014.1mb 56f 59f
9:48 2 5 mph 1014.2mb 56f 60f
9:42  -  6 mph 1014.2mb 56f 60f
9:36 3 7 mph 1014.3mb 56f 60f
9:30 3 9 mph 1014.3mb 56f 60f
9:24 5 10 mph 1014.4mb 56f 60f
9:18 5 10 mph 1014.5mb 56f 60f
9:12 5 7 mph 1014.5mb 56f 60f
9:06 5 9 mph 1014.5mb 56f 60f
9:00 3 7 mph 1014.6mb 55f 60f
8:54 5 13 mph 1014.6mb 55f 60f
8:48 5 11 mph 1014.7mb 55f 60f
8:42 5 10 mph 1014.7mb 55f 60f
8:36 6 11 mph 1014.7mb 56f 60f
8:30 7 10 mph 1014.7mb 56f 60f
8:24 6 14 mph 1014.7mb 55f 60f
8:18 6 11 mph 1014.7mb 55f 60f
8:12 7 15 mph 1014.6mb 55f 60f
8:06 7 11 mph 1014.6mb 55f 60f
8:00 8 17 mph 1014.6mb 55f 60f
7:54 8 15 mph 1014.5mb 55f 60f
7:48 8 14 mph 1014.5mb 55f 60f
7:42 9 14 mph 1014.4mb 55f 60f
7:36 8 14 mph 1014.4mb 55f 60f
7:30 9 15 mph 1014.4mb 55f 60f
7:24 9 16 mph 1014.3mb 55f 60f
7:18 9 16 mph 1014.3mb 55f 60f
7:12 11 16 mph 1014.2mb 56f 60f
7:06 10 14 mph 1014.2mb 55f 60f
7:00 10 15 mph 1014.1mb 55f 61f
6:54 9 14 mph 1014.1mb 55f 61f
6:48 10 15 mph 1014mb 55f 61f
6:42 11 16 mph 1014mb 55f 61f
6:36 9 13 mph 1013.9mb 55f 61f
6:30 9 14 mph 1013.9mb 55f 61f
6:24 8 13 mph 1013.9mb 55f 62f
6:18 9 14 mph 1013.9mb 55f 62f
6:12 8 13 mph 1013.9mb 56f 62f
6:06 7 9 mph 1013.9mb 56f 62f
6:00 7 10 mph 1014mb 55f 63f
5:54 6 11 mph 1013.9mb 55f 63f
5:48 8 14 mph 1014mb 55f 63f
5:42 9 16 mph 1013.9mb 55f 64f
5:36 10 15 mph 1013.9mb 55f 64f
5:30 8 16 mph 1013.9mb 56f 64f
5:24 9 15 mph 1013.8mb 56f 64f
5:18 8 15 mph 1013.8mb 56f 65f
5:12 9 14 mph 1013.8mb 56f 65f
5:06 9 14 mph 1013.7mb 56f 65f
5:00 9 14 mph 1013.7mb 56f 65f
4:54 8 15 mph 1013.7mb 56f 65f
4:48 7 11 mph 1013.7mb 56f 65f
4:42 8 14 mph 1013.7mb 56f 65f
4:36 8 15 mph 1013.6mb 56f 65f
4:30 9 15 mph 1013.6mb 56f 65f
4:24 10 15 mph 1013.7mb 56f 65f
4:18 11 16 mph 1013.6mb 56f 65f
4:12 9 15 mph 1013.6mb 56f 66f
4:06 8 13 mph 1013.7mb 56f 66f
4:00 7 13 mph 1013.7mb 56f 66f
3:54 9 13 mph 1013.7mb 56f 66f
3:48 7 10 mph 1013.8mb 56f 66f
3:42 7 11 mph 1013.7mb 56f 66f
3:36 8 11 mph 1013.7mb 56f 66f
3:30 8 17 mph 1013.7mb 56f 66f
3:24 5 14 mph 1013.7mb 56f 67f
3:18 3 13 mph 1013.7mb 56f 67f
3:12 7 14 mph 1013.8mb 56f 66f
3:06 5 10 mph 1013.8mb 56f 67f
3:00 9 13 mph 1013.8mb 56f 66f
2:54 6 14 mph 1013.9mb 56f 66f
2:48 10 15 mph 1013.9mb 56f 65f
2:42 14 20 mph 1013.8mb 57f 66f
2:36 8 17 mph 1014mb 57f 66f
2:30 11 15 mph 1014mb 57f 66f
2:24 7 14 mph 1014mb 57f 65f
2:18 3 8 mph 1014mb 57f 63f
2:12 8 14 mph 1014.1mb 57f 62f
2:06 7 14 mph 1014.1mb 57f 60f
2:00 11 14 mph 1014.1mb 56f 59f
1:54 10 13 mph 1014.2mb 56f 59f
1:48 11 14 mph 1014.3mb 56f 59f
1:42 14 15 mph 1014.3mb 56f 58f
1:36 10 13 mph 1014.4mb 56f 58f
1:30 13 15 mph 1014.4mb 56f 58f
1:24 9 13 mph 1014.6mb 56f 58f
1:18 11 14 mph 1014.6mb 56f 58f
1:12 11 14 mph 1014.6mb 56f 58f
1:06 9 11 mph 1014.6mb 56f 60f
1:00 9 14 mph 1014.6mb 56f 62f
12:54 9 13 mph 1014.6mb 56f 62f
12:48 9 11 mph 1014.6mb 56f 62f
12:42 9 13 mph 1014.6mb 56f 62f
12:36 8 10 mph 1014.7mb 56f 62f
12:30 7 11 mph 1014.8mb 56f 61f
12:24 8 10 mph 1014.7mb 56f 61f
12:18 8 10 mph 1014.7mb 56f 61f
12:12 8 10 mph 1014.7mb 56f 61f
12:06 9 10 mph 1014.7mb 56f 60f
12:00 9 11 mph 1014.9mb 56f 59f
11:54 9 11 mph 1014.9mb 56f 60f
11:48 10 11 mph 1014.9mb 56f 59f
11:42 10 11 mph 1014.8mb 56f 60f
11:36 6 8 mph 1014.8mb 56f 60f
11:30 6 8 mph 1014.8mb 56f 60f
11:24 3 5 mph 1014.8mb 56f 61f
11:18 3
mph
1014.8mb 56f 60f
11:12 2
mph
1014.8mb 56f 59f
11:06 1 3 mph 1014.8mb 56f 59f
11:00 3
mph
1015mb 56f 58f
10:54 2 3 mph 1015mb 56f 58f
10:48 2 3 mph 1015.1mb 56f 58f
10:42 3 6 mph 1015.2mb 56f 57f
10:36 5 6 mph 1015.2mb 56f 57f
10:30 3 6 mph 1015.2mb 56f 57f
10:24 5 7 mph 1015.2mb 55f 57f
10:18 7 8 mph 1015.2mb 55f 55f
10:12 5 6 mph 1015.3mb 55f 56f
10:06 6 7 mph 1015.3mb 55f 56f
10:00 3 5 mph 1015.4mb 55f 57f
9:54 2 5 mph 1015.3mb 55f 57f
9:48  -  6 mph 1015.4mb 55f 56f
9:42 6 8 mph 1015.4mb 55f 55f
9:36 6 7 mph 1015.4mb 55f 54f
9:30 2 5 mph 1015.4mb 55f 55f
9:24 5 7 mph 1015.4mb 55f 55f
9:18 5 6 mph 1015.4mb 55f 55f
9:12 5 7 mph 1015.3mb 55f 55f
9:06 6 7 mph 1015.3mb 55f 57f
9:00 6 7 mph 1015.4mb 55f 57f
8:54 5
mph
1015.5mb 55f 57f
8:48 3 6 mph 1015.5mb 55f 57f
8:42 3 8 mph 1015.4mb 55f 57f
8:36 5 8 mph 1015.4mb 55f 56f
8:30 6 7 mph 1015.3mb 55f 54f
8:24 6 9 mph 1015.1mb 55f 55f
8:18 7 9 mph 1015.1mb 55f 55f
8:12 6 8 mph 1015.1mb 55f 55f
8:06 6 8 mph 1015mb 55f 55f
8:00 6 8 mph 1015mb 55f 57f
7:54 5 8 mph 1014.9mb 55f 57f
7:48 6 8 mph 1014.9mb 55f 57f
7:42 5 8 mph 1014.8mb 55f 57f
7:36 7 10 mph 1014.8mb 55f 57f
7:30 3 9 mph 1014.7mb 55f 57f
7:24 6 9 mph 1014.7mb 55f 56f
7:18 5 6 mph 1014.7mb 55f 55f
7:12 6 7 mph 1014.7mb 55f 55f
7:06 6 7 mph 1014.7mb 55f 54f
7:00 6
mph
1014.7mb 55f 54f
6:54 5 6 mph 1014.7mb 55f 54f
6:48 1 5 mph 1014.6mb 55f 55f
6:42 3 7 mph 1014.6mb 55f 55f
6:36 1 8 mph 1014.6mb 55f 55f
6:30 3 8 mph 1014.6mb 55f 55f
6:24 2 8 mph 1014.6mb 55f 55f
6:18 5 7 mph 1014.5mb 55f 55f
6:12 3 8 mph 1014.5mb 55f 54f
6:06 6 10 mph 1014.5mb 55f 54f
6:00 7 9 mph 1014.5mb 55f 54f
5:54 6 9 mph 1014.4mb 55f 55f
5:48 6 9 mph 1014.3mb 55f 55f
5:42 6 10 mph 1014.2mb 55f 55f
5:36 7 11 mph 1014.2mb 55f 55f
5:30 6 9 mph 1014.2mb 55f 55f
5:24 6 9 mph 1014.2mb 55f 55f
5:18 5 8 mph 1014.1mb 55f 55f
5:12 6 10 mph 1014mb 55f 55f
5:06 7 11 mph 1014mb 55f 55f
5:00 6 11 mph 1013.9mb 55f 55f
4:54 6 10 mph 1013.9mb 55f 55f
4:48 6 10 mph 1013.8mb 55f 55f
4:42 7 13 mph 1013.9mb 55f 55f
4:36 7 11 mph 1013.8mb 55f 55f
4:30 7 13 mph 1013.8mb 55f 55f
4:24 8 13 mph 1013.8mb 55f 55f
4:18 8 14 mph 1013.7mb 55f 56f
4:12 8 14 mph 1013.6mb 55f 56f
4:06 6 11 mph 1013.6mb 55f 55f
4:00 6 10 mph 1013.6mb 55f 55f
3:54 7 13 mph 1013.6mb 55f 55f
3:48 7 13 mph 1013.6mb 55f 55f
3:42 9 11 mph 1013.6mb 55f 55f
3:36 9 13 mph 1013.5mb 55f 55f
3:30 9 14 mph 1013.5mb 55f 55f
3:24 9 15 mph 1013.5mb 55f 55f
3:18 9 14 mph 1013.5mb 55f 55f
3:12 11 15 mph 1013.4mb 55f 55f
3:06 10 14 mph 1013.5mb 55f 55f
3:00 8 11 mph 1013.6mb 55f 55f
2:54 9 13 mph 1013.6mb 55f 55f
2:48 9 14 mph 1013.6mb 55f 55f
2:42 10 15 mph 1013.6mb 55f 55f
2:36 9 14 mph 1013.7mb 56f 55f
2:30 9 14 mph 1013.7mb 56f 55f
2:24 9 14 mph 1013.7mb 56f 55f
2:18 9 15 mph 1013.7mb 55f 55f
2:12 11 15 mph 1013.7mb 56f 55f
2:06 10 15 mph 1013.8mb 56f 55f
2:00 9 15 mph 1013.8mb 56f 55f
1:54 9 15 mph 1013.8mb 56f 55f
1:48 10 14 mph 1013.7mb 56f 55f
1:42 7 14 mph 1013.7mb 56f 55f
1:36 7 14 mph 1013.8mb 56f 56f
1:30 9 14 mph 1013.8mb 56f 56f
1:24 9 13 mph 1013.8mb 56f 56f
1:18 8 11 mph 1013.9mb 56f 56f
1:12 9 13 mph 1013.9mb 56f 56f
1:06 9 13 mph 1013.8mb 56f 56f
1:00 8 11 mph 1013.9mb 56f 56f
12:54 8 13 mph 1013.9mb 56f 56f
12:48 6 10 mph 1013.9mb 56f 56f
12:42 5 9 mph 1013.8mb 56f 56f
12:36 3 6 mph 1013.8mb 56f 56f
12:30 2 5 mph 1013.8mb 56f 56f
12:24  -  2 mph 1013.8mb 56f 57f
12:18 1 6 mph 1013.8mb 56f 57f
12:12 1 5 mph 1013.8mb 56f 57f
12:06 2 5 mph 1013.8mb 56f 57f
12:00 2 5 mph 1013.9mb 56f 58f
mar. 09/16 11:54 3 6 mph 1013.9mb 56f 58f
11:48 3 7 mph 1013.9mb 56f 58f
11:42 6 8 mph 1013.9mb 56f 58f
11:36 5 9 mph 1014mb 56f 59f
11:30 6 9 mph 1013.9mb 56f 59f
11:24 6 9 mph 1013.9mb 56f 59f
11:18 5 7 mph 1013.9mb 56f 59f
11:12 6 9 mph 1013.9mb 56f 59f
11:06 7 11 mph 1013.8mb 56f 59f
11:00 5 9 mph 1013.9mb 56f 59f
10:54 3 10 mph 1014mb 56f 59f
10:48 6 9 mph 1014.1mb 56f 59f
10:42 5 9 mph 1014.2mb 56f 58f
10:36 1 8 mph 1014.2mb 56f 58f
10:30 2 7 mph 1014.2mb 56f 58f
10:24 6 10 mph 1014.2mb 56f 58f
10:18 3 8 mph 1014.1mb 56f 58f
10:12 3 9 mph 1014.1mb 56f 58f
10:06 5 9 mph 1014.1mb 56f 58f
10:00 2 10 mph 1014.2mb 56f 58f
9:54 6 10 mph 1014mb 56f 58f
9:48 3 9 mph 1014mb 56f 58f
9:42 8 11 mph 1014mb 56f 58f
9:36 3 8 mph 1014mb 56f 58f
9:30  -  7 mph 1014.1mb 56f 57f
9:24  -  7 mph 1014.1mb 56f 57f
9:18 2 6 mph 1014.1mb 56f 57f
9:12 2 6 mph 1014.2mb 56f 57f
9:06 1 5 mph 1014.2mb 56f 57f
9:00  -  5 mph 1014.2mb 56f 57f
8:54 2 8 mph 1014.3mb 56f 57f
8:48 3 8 mph 1014.2mb 56f 57f
8:42 2 8 mph 1014.2mb 56f 57f
8:36 2 7 mph 1014.2mb 56f 57f
8:30 5 8 mph 1014.2mb 56f 57f
8:24 3 7 mph 1014.1mb 56f 58f
8:18 3 7 mph 1014.1mb 56f 58f
8:12 3 8 mph 1014.1mb 56f 58f
8:06 5 7 mph 1014mb 56f 58f
8:00 5 10 mph 1014.1mb 56f 58f
7:54 3 11 mph 1014.1mb 56f 58f
7:48 5 9 mph 1014.1mb 56f 58f
7:42 6 9 mph 1014.1mb 56f 58f
7:36 2 9 mph 1014.1mb 56f 58f
7:30 3 6 mph 1014.2mb 56f 58f
7:24  -  8 mph 1014.2mb 56f 58f
7:18 3 9 mph 1014.1mb 56f 58f
7:12 3 7 mph 1014mb 56f 58f
7:06 5 8 mph 1014mb 56f 58f
7:00 2 11 mph 1013.9mb 56f 58f
6:54 6 11 mph 1013.9mb 56f 58f
6:48 3 11 mph 1013.9mb 56f 58f
6:42 5 9 mph 1013.8mb 56f 58f
6:36 5 8 mph 1013.7mb 56f 58f
6:30 3 8 mph 1013.7mb 56f 58f
6:24 3 11 mph 1013.7mb 56f 58f
6:18 5 10 mph 1013.7mb 56f 59f
6:12 6 10 mph 1013.7mb 56f 58f
6:06 2 10 mph 1013.8mb 56f 59f
6:00 6 10 mph 1013.8mb 56f 59f
5:54 7 10 mph 1013.9mb 56f 59f
5:48 6 11 mph 1013.9mb 56f 59f
5:42 5 9 mph 1013.9mb 56f 59f
5:36 6 13 mph 1014mb 56f 59f
5:30 5 10 mph 1014mb 56f 59f
5:24 6 13 mph 1014mb 56f 59f
5:18 6 10 mph 1014mb 56f 59f
5:12 5 7 mph 1014mb 56f 59f
5:06 6 8 mph 1014mb 56f 59f
5:00 3 6 mph 1014.1mb 56f 59f
4:54 5 7 mph 1014.1mb 56f 59f
4:48 5 7 mph 1014.1mb 56f 59f
4:42 3 8 mph 1014.1mb 56f 59f
4:36 5 7 mph 1014.1mb 56f 60f
4:30 6 9 mph 1014.1mb 56f 59f
4:24 3 7 mph 1014mb 56f 60f
4:18 3 8 mph 1014.1mb 56f 60f
4:12 7 10 mph 1014.1mb 56f 60f
4:06 3 8 mph 1014.1mb 56f 60f
4:00 6 9 mph 1014.1mb 56f 60f
3:54 3 8 mph 1014.1mb 56f 60f
3:48 6 8 mph 1014.2mb 56f 60f
3:42 5 7 mph 1014.1mb 56f 59f
3:36 7 9 mph 1014.1mb 56f 58f
3:30 6 10 mph 1014.1mb 56f 59f
3:24 1 8 mph 1014.1mb 56f 60f
3:18 5 10 mph 1014.2mb 56f 60f
3:12 7 10 mph 1014.3mb 56f 60f
3:06 6 10 mph 1014.3mb 56f 61f
3:00 6 9 mph 1014.3mb 56f 61f
2:54 7 10 mph 1014.3mb 55f 61f
2:48 6 13 mph 1014.3mb 55f 60f
2:42 5 13 mph 1014.2mb 56f 61f
2:36 7 10 mph 1014.2mb 56f 60f
2:30 5 10 mph 1014.3mb 56f 61f
2:24 3 8 mph 1014.4mb 56f 61f
2:18 6 10 mph 1014.4mb 56f 60f
2:12 7 9 mph 1014.4mb 56f 60f
2:06 3 10 mph 1014.5mb 56f 60f
2:00 5 8 mph 1014.6mb 56f 61f
1:54 3 9 mph 1014.7mb 56f 60f
1:48 7 11 mph 1014.8mb 56f 59f
1:42 5 7 mph 1014.9mb 56f 58f
1:36 5 10 mph 1015mb 56f 58f
1:30 5 6 mph 1015.1mb 56f 58f
1:24 6 9 mph 1015.1mb 56f 57f
1:18 7 8 mph 1015.2mb 56f 57f
1:12 2 7 mph 1015.2mb 55f 57f
1:06 5 8 mph 1015.3mb 55f 57f
1:00 5 6 mph 1015.4mb 55f 57f
11:54 7 10 mph 1016mb 56f 57f
11:48 8 11 mph 1016.1mb 56f 57f
11:42 3 8 mph 1016.2mb - 57f
11:36 5 10 mph 1016.2mb - 57f
11:30 7 10 mph 1016.3mb 56f 57f
11:24 7 10 mph 1016.3mb 56f 57f
11:18 6 8 mph 1016.4mb 56f 57f
11:12 3 7 mph 1016.3mb 56f 57f
11:06 5 8 mph 1016.4mb 56f 57f
11:00 5 7 mph 1016.5mb 56f 57f
10:54 6 8 mph 1016.6mb 56f 57f
10:48 5 10 mph 1016.7mb 56f 57f
10:42 7 10 mph 1016.7mb 56f 57f
10:30  -  mph 1016.8mb - -
10:24  -  mph - 56f -
10:18  -  mph - 56f -
10:12  -  mph 1016.9mb - -
9:54  -  mph 1016.8mb - -
9:48  -  mph - - 57f
9:42  -  mph - - 57f
9:36  -  mph - - 58f
9:30  -  mph - - 58f
9:24  -  mph - - 58f
9:18  -  mph - - 58f
9:12  -  mph - - 58f
9:06  -  mph - - 58f
9:00 3 9 mph - - 58f
8:54 1 5 mph - - 58f
8:48 3 6 mph 1017mb - 58f
8:42 3 7 mph 1017mb - 58f
8:36 5 6 mph 1017mb - 58f
8:30 3 8 mph - - 58f
8:24 5 8 mph - - 58f
8:18 2 8 mph 1017.1mb - 58f
8:12 5 10 mph 1017.2mb - 58f
8:06 6 10 mph 1017.2mb - 58f
8:00 3 8 mph 1017.1mb 56f 57f
7:54 7 13 mph 1017.2mb 56f 57f
7:48 7 10 mph 1017.2mb 56f 57f
7:42 6 10 mph 1017.1mb 56f 57f
7:36 6 10 mph 1017.1mb 56f 57f